sat.trackr.live / text

‹ back to catalog

TPA-1

NORAD 64533 · 2025-135F

PAYLOAD ACTIVE UNKNOWN

§ Identity

Operator
Country
NZ
Launch date
2025-06-23
Launch site
AFWTR
Launch vehicle
Mass (kg)
RCS (m²)

External: N2YO · Heavens-Above · Gunter

§ Orbital elements

Epoch: 2026-05-25T01:16:05.431296Z

Period
94.66 min
Inclination
97.4660°
Eccentricity
0.0003621
Mean motion
15.21237295 rev/d
Perigee alt
499.6 km
Apogee alt
504.6 km
Semi-major
6,880.2 km
B*
1.3984e-4
RAAN
260.1800°
Arg perigee
269.1979°
Mean anomaly
90.8842°
Rev number
5,133

§ Raw data

TPA-11 64533U 25135F   26145.05284064  .00003052  00000+0  13984-3 0  99912 64533  97.4660 260.1800 0003621 269.1979  90.8842 15.21237295 51337

JSON: /api/v1/satellites/64533 · /tle

For live sub-satellite position, see the globe view (requires WebGL).

§ Visibility from observer

Set your observer location to see the next 7 days of passes ≥ 10°. The values pass through the URL so the page stays shareable.

No JS? Fill the form by hand. The geolocation button needs JavaScript.

§ Radio — SatNOGS DB

ModeDescriptionDownlinkUplink
GMSK Mode S - Transmitter 2.221 GHz
GFSK Mode U - GFSK9k6 401.900 MHz
GFSK Mode U - GFSK2k4 (inactive) 401.900 MHz

3 transmitters · refreshed weekly from db.satnogs.org